Время (UTC), дата Ветер
(°,м/с) 
Видим.   Явления Облачность Т
(°С)
Тd
(°С)
f(%) Тe
(°С)
Pmin
(гПа)
dP
(гПа)
Po
(мм)
O2
(г/м3)
Тmin Tmax R s Состояние
почвы
00 21.01.15 300 (СЗ) 10 км    ясно 
-13.1 -15.6 82 -17  1031.3  761  324           
03 21.01.15 270 (З) 10 км    3/0 средняя 
[Ac lent]
-14 -16.1 84 -14  1030.8  -0.5  761  325  -14.2      45  равномерный
сухой снег
100% 
06 21.01.15 260 (З) 10 км    3/0 средняя 
[Ac lent]
-12.2 -15.4 77 -14  1030.6  -0.1  761  322           
09 21.01.15 270 (З) 10 км    3/0 верхняя 
[Ci fib]
-10.4 -15.1 69 -14  1029.8  -0.7  761  320           
12 21.01.15 280 (З) 10 км    3/0 верхняя 
[Ci fib]
-10.6 -15.4 68 -15  1028.1  -1.6  759  320           
15 21.01.15 280 (З) 10 км    9/0 средняя 
[Ac lent]
-10.5 -14.9 70 -15  1027.8  -0.4  759  319    -10       
18 21.01.15 280 (З) 10 км    3/0 верхняя 
[Ci fib]
-11.8 -15.8 72 -15  1027.5  -0.4  759  321           
21 21.01.15 300 (СЗ) 10 км    ясно 
-13.6 -16.7 78 -18  1027.5  759  323           
00 22.01.15 300 (СЗ) 10 км    ясно 
-15.2 -17.7 81 -21  1027.4  -0.2  759  325           
03 22.01.15 300 (СЗ) 4{10}  10 км    3/0 верхняя 
[Ci fib]
-16.7 -19.1 81 -22  1027.3  -0.2  758  327  -16.7      45  равномерный
сухой снег
100% 
06 22.01.15 310 (СЗ) 10 км  слаб. снег  9/0 средняя 
[As op]
-17.1 -19.3 83 -21  1028.8  1.4  759  328  -17.6         
09 22.01.15 310 (СЗ) 10 км  {снег}  8/0 средняя 
[Ac lent]
-14.7 -18 76 -17  1030.4  1.7  761  325           
12 22.01.15 010 (С) 10 км  {снег}  6/0 средняя 
[Ac lent]
-13.3 -17.1 73 -15  1032.4  762  324           
15 22.01.15 010 (С) 10 км    ясно 
-14.2 -17.4 76 -14  1035.1  2.6  764  326    -13.3  0.0     
18 22.01.15 010 (С) 10 км    ясно 
-14.6 -17.3 80 -15  1037.2  766  327           
21 22.01.15 тихо ()   10 км    4/0 верхняя 
[Cs]
-17.3 -19.4 84 -17  1039.4  2.1  767  332           
00 23.01.15 тихо ()   10 км    10/10 330 м 
[St]
-15.9 -17.9 85 -16  1041  1.6  769  330           
03 23.01.15 120 (ЮВ) н/о    н/о 
-15.8 -17.8 84 -16  1042.6  1.6  770  331  -17.7         
06 23.01.15 160 (Ю) 2000 м  снежные зёрна [диам. изморози 3 мм]  10/10 120 м 
[St]
-15.7 -17.5 86 -16  1043.9  1.3  771  331           
09 23.01.15 150 (ЮВ) 10 км  {снег} [диам. изморози 7 мм]  9/0 верхняя 
[Cs]
-15.6 -17.6 85 -18  1044.4  0.5  771  331           
12 23.01.15 170 (Ю) 10 км  {снег} [диам. изморози 7 мм]  10/0 верхняя 
[Cs]
-16.3 -19 80 -16  1044.9  0.4  771  332           
15 23.01.15 140 (ЮВ) 10 км    8/0 верхняя 
[Cs]
-18.3 -20.9 80 -21  1045.4  0.3  772  335    -15.2  0.0     
18 23.01.15 150 (ЮВ) 10 км    5/0 верхняя 
[Ci fib]
-19.1 -21.7 80 -23  1045  -0.5  771  336           
21 23.01.15 150 (ЮВ) 10 км    5/0 верхняя 
[Ci fib]
-18.4 -21.1 79 -23  1044.4  -0.5  771  335           
00 24.01.15 140 (ЮВ) 10 км    3/0 верхняя 
[Ci fib]
-17.7 -20.4 79 -20  1043.9  -0.4  771  334           
03 24.01.15 140 (ЮВ) 10 км    5/0 верхняя 
[Ci fib]
-17 -19.8 79 -21  1042.7  -1.1  770  332  -19.1      45  равномерный
сухой снег
100% 
06 24.01.15 140 (ЮВ) 10 км    9/0 средняя 
[Ac lent]
-16.3 -19.5 76 -20  1042.4  -0.2  770  331           
09 24.01.15 140 (ЮВ) 10 км    9/0 средняя 
[Ac lent]
-14.6 -18.9 70 -17  1042.3  -0.1  770  329           
12 24.01.15 140 (ЮВ) 10 км    8/0 верхняя 
[Cs]
-14.1 -19.5 64 -16  1041.9  -0.3  769  328           
15 24.01.15 160 (Ю) 10 км    10/0 верхняя 
[Ci fib]
-14.9 -18.8 72 -19  1041.5  -0.5  769  329    -13.7       
18 24.01.15 170 (Ю) 10 км    10/0 средняя 
[As op]
-14.9 -18.7 73 -19  1040.6  -0.8  768  329           
21 24.01.15 160 (Ю) 10 км    10/0 средняя 
[As op]
-15.5 -19.5 72 -18  1040.9  0.2  768  330           
00 25.01.15 160 (Ю) 10 км    10/0 средняя 
[As op]
-14.9 -18.8 72 -15  1040.4  -0.5  768  329           
03 25.01.15 170 (Ю) 10 км  слаб. снег  10/0 средняя 
[As op]
-13.8 -17.1 76 -16  1040.6  0.3  768  328  -15.6    0.0  45  равномерный
сухой снег
100% 
06 25.01.15 200 (Ю) 10 км  слаб. снег  10/0 средняя 
[As op]
-12.8 -15.2 82 -13  1041.3  0.8  769  326           
09 25.01.15 230 (ЮЗ) 10 км  {снег}  10/0 средняя 
[As op]
-10.1 -14.4 71 -10  1042.1  0.9  770  323           
12 25.01.15 тихо ()   10 км  {снег}  8/0 средняя 
[Ac lent]
-9.1 -14.4 65 -9  1042.3  0.2  770  322           
15 25.01.15 170 (Ю) 10 км    10/0 средняя 
[Ac cast]
-9.5 -14.5 67 -9  1042.8  0.5  770  323    -8.6     
18 25.01.15 160 (Ю) 10 км    4/0 средняя 
[Ac lent]
-12 -16.9 67 -12  1043.3  0.3  770  326           
21 25.01.15 150 (ЮВ) 10 км    3/0 средняя 
[Ac lent]
-16 -19.9 72 -16  1043.2  -0.4  770  331           
00 26.01.15 130 (ЮВ) 10 км    ясно 
-17.7 -21.6 71 -20  1042.8  -0.4  770  333           
03 26.01.15 140 (ЮВ) 10 км    ясно 
-19.7 -23.3 73 -22  1041.7  -1.2  769  336  -19.7      45  равномерный
сухой снег
100% 
06 26.01.15 140 (ЮВ) 10 км    8/0 верхняя 
[Ci fib]
-19 -22.7 72 -22  1040.8  -0.8  768  334  -20.1         
09 26.01.15 160 (Ю) 10 км    8/0 верхняя 
[Ci fib]
-16.2 -21.3 65 -19  1039.5  -1.1  767  330           
12 26.01.15 140 (ЮВ) 10 км    5/0 верхняя 
[Ci fib]
-15.8 -21.6 61 -18  1037.6  -1.8  766  329           
15 26.01.15 140 (ЮВ) 10 км    3/0 верхняя 
[Ci fib]
-17.2 -21.7 68 -20  1036.6  -1.1  765  331    -15       
18 26.01.15 140 (ЮВ) 10 км    3/0 верхняя 
[Cs]
-17.4 -22.4 65 -20  1035.3  -1.3  764  331           
21 26.01.15 130 (ЮВ) 10 км    ясно 
-18 -22.7 66 -21  1034.4  -0.9  764  331           
00 27.01.15 140 (ЮВ) 10 км    3/0 верхняя 
[Ci sp]
-18.5 -23.3 66 -23  1033.9  -0.6  763  332           
03 27.01.15 140 (ЮВ) 10 км    3/0 верхняя 
[Ci sp]
-18.9 -24.2 63 -23  1033.1  -0.8  763  332  -18.9      45  равномерный
сухой снег
100% 
06 27.01.15 150 (ЮВ) 10 км    5/0 верхняя 
[Ci fib]
-19.1 -24 65 -22  1033  0.1  762  332  -19.3         
09 27.01.15 150 (ЮВ) 10 км    5/0 верхняя 
[Ci fib]
-16.9 -23 59 -19  1032.5  -0.3  762  329           
12 27.01.15 140 (ЮВ) 10 км    5/0 верхняя 
[Ci fib]
-15.3 -22.6 54 -18  1031.7  -0.6  762  327           
15 27.01.15 140 (ЮВ) 10 км    5/0 верхняя 
[Ci fib]
-15.8 -23 54 -16  1031.5  -0.3  761  327    -15.2       
18 27.01.15 150 (ЮВ) 10 км    3/0 верхняя 
[Ci fib]
-16.2 -22.4 59 -19  1030.2  -1.3  761  327           
21 27.01.15 140 (ЮВ) 10 км    ясно 
-16.2 -22.4 59 -20  1028.7  -1.4  759  327           
00 28.01.15 150 (ЮВ) 10 км    3/0 верхняя 
[Ci fib]
-17.1 -22.3 64 -21  1026.9  -1.8  758  328           
03 28.01.15 160 (Ю) 10 км  слаб. снег  9/9 1380 м 
[Sc]
-15.9 -20 71 -16  1025.3  -1.6  757  325  -17.2    0.0  45  равномерный
сухой снег
100% 
06 28.01.15 150 (ЮВ) 10 км  слаб. снег  10/10 1320 м 
[Sc]
-14.7 -17.7 78 -17  1023.9  -1.3  756  323           
09 28.01.15 170 (Ю) 2000 м  снег  10/10 1260 м 
[Sc]
-13.6 -16.8 77 -16  1023.1  -0.7  755  322           
12 28.01.15 180 (Ю) 10 км  {снег}  10/0 средняя 
[As op]
-13.5 -16.1 81 -17  1021.9  -1.2  755  321           
15 28.01.15 180 (Ю) 2000 м  снег  10/10 360 м 
[Frnb|Ns]
-12.8 -15 83 -15  1022  0.1  755  320    -12.8     
18 28.01.15 150 (ЮВ) 2000 м  снег  10/10 180 м 
[Frnb|Ns]
-12.1 -14.1 85 -14  1021.3  -0.6  754  319           
21 28.01.15 150 (ЮВ) 2000 м  снег  10/0 средняя 
[As op]
-12.2 -14 87 -14  1020.6  -0.7  754  319           
00 29.01.15 160 (Ю) 4000 м  слаб. снег  10/0 средняя 
[As op]
-12.8 -14.8 85 -15  1019.9  -0.7  753  320           
03 29.01.15 160 (Ю) 10 км  слаб. снег  10/10 700 м 
[Sc]
-14.1 -16.8 80 -16  1020  753  321  -14.1    50  равномерный
сухой снег
100% 
06 29.01.15 150 (ЮВ) 10 км  слаб. снег  10/10 800 м 
[Sc]
-15.1 -18 78 -17  1020.2  0.1  753  323  -15.1         
09 29.01.15 150 (ЮВ) 10 км  в посл. час снег  10/10 500 м 
[Sc]
-14.6 -17.7 77 -17  1020.4  0.3  753  322           
12 29.01.15 170 (Ю) 10 км  слаб. снег  10/0 средняя 
[As op]
-13.7 -16.8 77 -16  1019.9  -0.5  753  321           
15 29.01.15 160 (Ю) 2000 м  снег  10/0 средняя 
[As op]
-14.2 -16.6 82 -16  1020.3  0.4  753  322    -13.6  0.8     
18 29.01.15 140 (ЮВ) 2000 м  снег  10/10 120 м 
[Frnb|Ns]
-14.3 -16.4 84 -16  1019.9  -0.4  753  322           
21 29.01.15 150 (ЮВ) 10 км  слаб. снег  10/10 700 м 
[Sc]
-13.6 -15.8 84 -16  1020.1  0.2  753  321           
00 30.01.15 150 (ЮВ) 10 км  {снег}  10/10 570 м 
[St]
-13.6 -15.7 84 -16  1020.3  0.2  753  321           
03 30.01.15 140 (ЮВ) 10 км    4/0 верхняя 
[Ci fib]
-15.9 -18 84 -16  1020.9  0.4  754  324  -15.9    52  равномерный
сухой снег
100% 
06 30.01.15 130 (ЮВ) 10 км    4/0 верхняя 
[Ci fib]
-15.9 -18 84 -18  1021.4  0.5  754  324  -16.4         
09 30.01.15 160 (Ю) 10 км    8/0 верхняя 
[Ci fib]
-14.2 -17.5 76 -16  1022.3  0.9  755  322           
12 30.01.15 140 (ЮВ) 10 км    8/0 верхняя 
[Cs]
-15.3 -18.7 75 -18  1022.1  -0.2  755  324           
15 30.01.15 130 (ЮВ) 10 км    8/0 верхняя 
[Cs]
-15.4 -18.5 77 -18  1022.4  0.2  755  324    -14.1       
18 30.01.15 140 (ЮВ) 10 км    10/10 360 м 
[St]
-14.3 -17.9 74 -16  1022  -0.3  755  322           
21 30.01.15 150 (ЮВ) 10 км    10/10 400 м 
[St]
-13.8 -17 77 -16  1022.2  0.2  755  322           
00 31.01.15 150 (ЮВ) 10 км    10/0 средняя 
[Ac As]
-12.6 -15.3 80 -16  1022.1  755  320           
03 31.01.15 150 (ЮВ) 10 км    10/0 средняя 
[As op]
-11.6 -14.2 81 -14  1022.6  0.5  755  319  -15.5      52  равномерный
сухой снег
100% 
06 31.01.15 150 (ЮВ) 10 км    10/0 средняя 
[Ac As]
-11.8 -14.5 80 -14  1022.8  0.2  755  319           
09 31.01.15 150 (ЮВ) 10 км    10/0 средняя 
[As op]
-10.2 -12.9 80 -13  1022.4  -0.3  755  317           
12 31.01.15 150 (ЮВ) 10 км    10/0 средняя 
[As op]
-8.9 -11.4 82 -12  1022.5  0.2  755  316           
15 31.01.15 150 (ЮВ) 10 км    10/0 средняя 
[As op]
-8.4 -10.6 84 -10  1022.4  -0.1  755  315    -8.4       
18 31.01.15 150 (ЮВ) 10 км  слаб. снег  10/0 средняя 
[As op]
-7.8 -10 84 -11  1021.6  -0.7  755  314           
21 31.01.15 140 (ЮВ) 10 км  {снег}  8/0 средняя 
[Ac As]
-6.7 -8.8 85 -9  1021.2  -0.3  754  313           
00 01.02.15 140 (ЮВ) 10 км  {снег}  8/0 средняя 
[As op]
-6.2 -8.2 86 -10  1021  -0.2  754  312           
03 01.02.15 140 (ЮВ) 10 км  слаб. снег  8/4 200 м средняя 
[Frnb|As op]
-6.6 -8.6 86 -9  1019.8  -1.2  753  312  -8.4    0.0  51  равномерный
сухой снег
100% 
06 01.02.15 160 (Ю) 3{11}  4000 м  позёмок{снег}  10/10 210 м 
[St]
-7 -8.6 88 -10  1020.1  0.3  754  312           
Время (UTC), дата Ветер
(°,м/с) 
Видим.   Явления Облачность Т
(°С)
Тd
(°С)
f(%) Тe
(°С)
Pmin
(гПа)
dP
(гПа)
Po
(мм)
O2
(г/м3)
Тmin Tmax R s Состояние
почвы